Regional Weather Roundup
Issued by NWS

Home | Current Version | Previous Version | Graphics & Text | Print | Product List | Glossary On
Versions: 1 2 3 4 5 6 7 8 9 10 11 12 13 14 15 16 17 18 19 20 21 22 23 24 25 26 27 28 29 30 31 32 33 34 35 36 37 38 39 40 41 42 43 44 45 46 47 48 49
000
ASUS45 KSLC 291010
RWRUT

UTAH REGIONAL WEATHER ROUNDUP
NATIONAL WEATHER SERVICE SALT LAKE CITY UT
400 AM MDT SAT AUG 29 2015

UTZ001>011-023>025-291100-

NORTHERN UTAH

CITY           SKY/WX    TMP DP  RH WIND       PRES   REMARKS
BRIGHAM CITY     N/A     64  47  54 CALM      30.05S
HILL AFB         N/A     70  37  29 E18G26    30.08S
LOGAN          CLEAR     55  45  68 N5        30.07F
OGDEN            N/A     70  38  31 S10       30.05R
PROVO AIRPORT    N/A     59  45  58 CALM      30.11S
SALT LAKE CITY   N/A     75  43  31 S12       30.04F
VERNAL         PTCLDY    63  43  48 CALM      30.21R
WENDOVER         N/A     72  43  35 CALM      30.02S
HEBER CITY       N/A     48  43  81 CALM      30.21S
WEST JORDAN    CLEAR     73  39  29 S12       30.09S

$$

UTZ012>022-026-027-291100-

SOUTHERN/CENTRAL UTAH

CITY           SKY/WX    TMP DP  RH WIND       PRES   REMARKS
BLANDING         N/A     62  31  32 NW6       30.29R
BRYCE CANYON     N/A     49  43  80 W6        30.37F
CEDAR CITY       N/A     67  43  41 S7        30.18S
DELTA            N/A     65  35  31 S9        30.10R
HANKSVILLE       N/A     61  46  59 CALM      30.15S
MILFORD          N/A     64  41  42 S10       30.13R
MOAB/CYNLANDS  CLEAR     66  41  40 CALM      30.12R
PRICE            N/A     60  36  40 N7        30.23S
ST GEORGE        N/A     79  48  34 E8        30.00R
KANAB            N/A     63  54  72 N6        30.21S

$$

REGIONAL REPORTS     COLORADO/ARIZONA

CITY           SKY/WX    TMP DP  RH WIND       PRES   REMARKS
CRAIG, CO      CLEAR     46  41  82 CALM      30.31S
GRAND JUNCTION CLEAR     61  45  55 SE10      30.19R
RIFLE          CLEAR     53  45  74 SE5       30.27R
MONTROSE       PTCLDY    57  45  64 S5        30.28R
CORTEZ         CLEAR     51  43  74 NE3       30.25R
PAGE, AZ         N/A     74  41  30 CALM      30.10R
GRAND CANYON     N/A     47  40  76 CALM      30.29S
KINGMAN          N/A     76  51  41 SE9       30.01S
FLAGSTAFF        N/A     49  45  86 CALM      30.32S

$$

REGIONAL REPORTS    NEVADA/IDAHO/WYOMING

CITY           SKY/WX    TMP DP  RH WIND       PRES   REMARKS
LAS VEGAS, NV    N/A     88  52  29 SW3       29.83F
ELY              N/A     61  42  49 S9        30.19S
ELKO             N/A     61  48  62 VRB6      30.03F
POCATELLO, ID  CLEAR     66  44  45 N12       30.03R
EVANSTON, WY   CLEAR     60  35  39 SE5       30.30S
ROCK SPRINGS   CLEAR     59  27  29 S9        30.30S
KEMMERER       PTCLDY    50  32  50 N10       30.32S

$$



USA.gov is the U.S. government's official web portal to all federal, state and local government web resources and services.